Time,TemperatureF,DewpointF,PressureIn,WindDirection,WindDirectionDegrees,WindSpeedMPH,WindSpeedGustMPH,Humidity,HourlyPrecipIn,Conditions,Clouds,dailyrainin,SoftwareType,DateUTC
2013-02-08 00:22:00,46.0,-99.9,-100.00,NW,306,11.0,-999.0,-999,-99.99,,,-99.99,,2013-02-08 08:22:00,
2013-02-08 00:32:00,46.0,-99.9,-100.00,NW,306,11.0,-999.0,-999,-99.99,,,-99.99,,2013-02-08 08:32:00,
2013-02-08 00:42:00,46.0,-99.9,-100.00,NW,306,11.0,-999.0,-999,-99.99,,,-99.99,,2013-02-08 08:42:00,
2013-02-08 00:52:00,46.0,-99.9,-100.00,NW,306,11.0,-999.0,-999,-99.99,,,-99.99,,2013-02-08 08:52:00,
2013-02-08 01:22:00,46.0,-99.9,-100.00,WNW,292,11.0,-999.0,-999,-99.99,,,-99.99,,2013-02-08 09:22:00,
2013-02-08 03:22:00,45.0,-99.9,-100.00,NNW,348,10.0,-999.0,-999,-99.99,,,-99.99,,2013-02-08 11:22:00,
2013-02-08 03:32:00,45.0,-99.9,-100.00,NNW,348,10.0,-999.0,-999,-99.99,,,-99.99,,2013-02-08 11:32:00,
2013-02-08 03:42:00,45.0,-99.9,-100.00,NNW,348,10.0,-999.0,-999,-99.99,,,-99.99,,2013-02-08 11:42:00,
2013-02-08 03:53:00,45.0,-99.9,-100.00,NNW,348,10.0,-999.0,-999,-99.99,,,-99.99,,2013-02-08 11:53:00,
2013-02-08 04:22:00,43.0,-99.9,-100.00,NNW,329,11.0,-999.0,-999,-99.99,,,-99.99,,2013-02-08 12:22:00,
2013-02-08 04:33:00,43.0,-99.9,-100.00,NNW,329,11.0,-999.0,-999,-99.99,,,-99.99,,2013-02-08 12:33:00,
2013-02-08 04:42:00,43.0,-99.9,-100.00,NNW,329,11.0,-999.0,-999,-99.99,,,-99.99,,2013-02-08 12:42:00,
2013-02-08 04:53:00,43.0,-99.9,-100.00,NNW,329,11.0,-999.0,-999,-99.99,,,-99.99,,2013-02-08 12:53:00,
2013-02-08 05:22:00,43.0,-99.9,-100.00,WNW,302,6.0,-999.0,-999,-99.99,,,-99.99,,2013-02-08 13:22:00,
2013-02-08 05:33:00,43.0,-99.9,-100.00,WNW,302,6.0,-999.0,-999,-99.99,,,-99.99,,2013-02-08 13:33:00,
2013-02-08 05:43:00,43.0,-99.9,-100.00,WNW,302,6.0,-999.0,-999,-99.99,,,-99.99,,2013-02-08 13:43:00,
2013-02-08 05:52:00,43.0,-99.9,-100.00,WNW,302,6.0,-999.0,-999,-99.99,,,-99.99,,2013-02-08 13:52:00,
2013-02-08 06:22:00,43.0,-99.9,-100.00,NNW,329,10.0,-999.0,-999,-99.99,,,-99.99,,2013-02-08 14:22:00,
2013-02-08 06:33:00,43.0,-99.9,-100.00,NNW,329,10.0,-999.0,-999,-99.99,,,-99.99,,2013-02-08 14:33:00,
2013-02-08 06:42:00,43.0,-99.9,-100.00,NNW,329,10.0,-999.0,-999,-99.99,,,-99.99,,2013-02-08 14:42:00,
2013-02-08 06:53:00,43.0,-99.9,-100.00,NNW,329,10.0,-999.0,-999,-99.99,,,-99.99,,2013-02-08 14:53:00,
2013-02-08 07:22:00,43.0,-99.9,-100.00,NW,319,4.0,-999.0,-999,-99.99,,,-99.99,,2013-02-08 15:22:00,
2013-02-08 07:32:00,43.0,-99.9,-100.00,NW,319,4.0,-999.0,-999,-99.99,,,-99.99,,2013-02-08 15:32:00,
2013-02-08 07:42:00,43.0,-99.9,-100.00,NW,319,4.0,-999.0,-999,-99.99,,,-99.99,,2013-02-08 15:42:00,
2013-02-08 07:52:00,43.0,-99.9,-100.00,NW,319,4.0,-999.0,-999,-99.99,,,-99.99,,2013-02-08 15:52:00,
2013-02-08 08:22:00,43.0,-99.9,-100.00,NW,315,8.0,-999.0,-999,-99.99,,,-99.99,,2013-02-08 16:22:00,
2013-02-08 08:33:00,43.0,-99.9,-100.00,NW,315,8.0,-999.0,-999,-99.99,,,-99.99,,2013-02-08 16:33:00,
2013-02-08 08:42:00,43.0,-99.9,-100.00,NW,315,8.0,-999.0,-999,-99.99,,,-99.99,,2013-02-08 16:42:00,
2013-02-08 08:52:00,43.0,-99.9,-100.00,NW,315,8.0,-999.0,-999,-99.99,,,-99.99,,2013-02-08 16:52:00,
2013-02-08 09:23:00,45.0,-99.9,-100.00,NNW,333,12.0,-999.0,-999,-99.99,,,-99.99,,2013-02-08 17:23:00,
2013-02-08 09:33:00,45.0,-99.9,-100.00,NNW,333,12.0,-999.0,-999,-99.99,,,-99.99,,2013-02-08 17:33:00,
2013-02-08 09:43:00,45.0,-99.9,-100.00,NNW,333,12.0,-999.0,-999,-99.99,,,-99.99,,2013-02-08 17:43:00,
2013-02-08 09:53:00,45.0,-99.9,-100.00,NNW,333,12.0,-999.0,-999,-99.99,,,-99.99,,2013-02-08 17:53:00,
2013-02-08 10:36:00,46.0,-99.9,-100.00,NW,319,18.0,-999.0,-999,-99.99,,,-99.99,,2013-02-08 18:36:00,
2013-02-08 10:44:00,46.0,-99.9,-100.00,NW,319,18.0,-999.0,-999,-99.99,,,-99.99,,2013-02-08 18:44:00,
2013-02-08 11:22:00,43.0,-99.9,-100.00,WNW,291,8.0,-999.0,-999,-99.99,,,-99.99,,2013-02-08 19:22:00,
2013-02-08 11:33:00,43.0,-99.9,-100.00,WNW,291,8.0,-999.0,-999,-99.99,,,-99.99,,2013-02-08 19:33:00,
2013-02-08 11:42:00,43.0,-99.9,-100.00,WNW,291,8.0,-999.0,-999,-99.99,,,-99.99,,2013-02-08 19:42:00,
2013-02-08 11:53:00,43.0,-99.9,-100.00,WNW,291,8.0,-999.0,-999,-99.99,,,-99.99,,2013-02-08 19:53:00,
2013-02-08 12:22:00,43.0,-99.9,-100.00,NW,318,8.0,-999.0,-999,-99.99,,,-99.99,,2013-02-08 20:22:00,
2013-02-08 12:32:00,43.0,-99.9,-100.00,NW,318,8.0,-999.0,-999,-99.99,,,-99.99,,2013-02-08 20:32:00,
2013-02-08 12:42:00,43.0,-99.9,-100.00,NW,318,8.0,-999.0,-999,-99.99,,,-99.99,,2013-02-08 20:42:00,
2013-02-08 12:53:00,43.0,-99.9,-100.00,NW,318,8.0,-999.0,-999,-99.99,,,-99.99,,2013-02-08 20:53:00,
2013-02-08 13:22:00,45.0,-99.9,-100.00,West,267,7.0,-999.0,-999,-99.99,,,-99.99,,2013-02-08 21:22:00,
2013-02-08 13:33:00,45.0,-99.9,-100.00,West,267,7.0,-999.0,-999,-99.99,,,-99.99,,2013-02-08 21:33:00,
2013-02-08 13:42:00,45.0,-99.9,-100.00,West,267,7.0,-999.0,-999,-99.99,,,-99.99,,2013-02-08 21:42:00,
2013-02-08 13:52:00,45.0,-99.9,-100.00,West,267,7.0,-999.0,-999,-99.99,,,-99.99,,2013-02-08 21:52:00,
2013-02-08 14:22:00,48.0,-99.9,-100.00,NNW,334,11.0,-999.0,-999,-99.99,,,-99.99,,2013-02-08 22:22:00,
2013-02-08 14:32:00,48.0,-99.9,-100.00,NNW,334,11.0,-999.0,-999,-99.99,,,-99.99,,2013-02-08 22:32:00,
2013-02-08 14:42:00,48.0,-99.9,-100.00,NNW,334,11.0,-999.0,-999,-99.99,,,-99.99,,2013-02-08 22:42:00,
2013-02-08 14:52:00,48.0,-99.9,-100.00,NNW,334,11.0,-999.0,-999,-99.99,,,-99.99,,2013-02-08 22:52:00,
2013-02-08 15:22:00,48.0,-99.9,-100.00,NW,322,19.0,-999.0,-999,-99.99,,,-99.99,,2013-02-08 23:22:00,
2013-02-08 15:32:00,48.0,-99.9,-100.00,NW,322,19.0,-999.0,-999,-99.99,,,-99.99,,2013-02-08 23:32:00,
2013-02-08 15:42:00,48.0,-99.9,-100.00,NW,322,19.0,-999.0,-999,-99.99,,,-99.99,,2013-02-08 23:42:00,
2013-02-08 15:52:00,48.0,-99.9,-100.00,NW,322,19.0,-999.0,-999,-99.99,,,-99.99,,2013-02-08 23:52:00,
2013-02-08 16:22:00,46.0,-99.9,-100.00,NW,315,15.0,-999.0,-999,-99.99,,,-99.99,,2013-02-09 00:22:00,
2013-02-08 16:32:00,46.0,-99.9,-100.00,NW,315,15.0,-999.0,-999,-99.99,,,-99.99,,2013-02-09 00:32:00,
2013-02-08 16:42:00,46.0,-99.9,-100.00,NW,315,15.0,-999.0,-999,-99.99,,,-99.99,,2013-02-09 00:42:00,
2013-02-08 16:52:00,46.0,-99.9,-100.00,NW,315,15.0,-999.0,-999,-99.99,,,-99.99,,2013-02-09 00:52:00,
2013-02-08 17:22:00,45.0,-99.9,-100.00,NW,320,11.0,-999.0,-999,-99.99,,,-99.99,,2013-02-09 01:22:00,
2013-02-08 17:32:00,45.0,-99.9,-100.00,NW,320,11.0,-999.0,-999,-99.99,,,-99.99,,2013-02-09 01:32:00,
2013-02-08 17:42:00,45.0,-99.9,-100.00,NW,320,11.0,-999.0,-999,-99.99,,,-99.99,,2013-02-09 01:42:00,
2013-02-08 17:52:00,45.0,-99.9,-100.00,NW,320,11.0,-999.0,-999,-99.99,,,-99.99,,2013-02-09 01:52:00,
2013-02-08 18:22:00,44.0,-99.9,-100.00,NNW,341,17.0,-999.0,-999,-99.99,,,-99.99,,2013-02-09 02:22:00,
2013-02-08 18:32:00,44.0,-99.9,-100.00,NNW,341,17.0,-999.0,-999,-99.99,,,-99.99,,2013-02-09 02:32:00,
2013-02-08 18:42:00,44.0,-99.9,-100.00,NNW,341,17.0,-999.0,-999,-99.99,,,-99.99,,2013-02-09 02:42:00,
2013-02-08 18:53:00,44.0,-99.9,-100.00,NNW,341,17.0,-999.0,-999,-99.99,,,-99.99,,2013-02-09 02:53:00,
2013-02-08 19:22:00,43.0,-99.9,-100.00,NNW,340,11.0,-999.0,-999,-99.99,,,-99.99,,2013-02-09 03:22:00,
2013-02-08 19:32:00,43.0,-99.9,-100.00,NNW,340,11.0,-999.0,-999,-99.99,,,-99.99,,2013-02-09 03:32:00,
2013-02-08 19:42:00,43.0,-99.9,-100.00,NNW,340,11.0,-999.0,-999,-99.99,,,-99.99,,2013-02-09 03:42:00,
2013-02-08 19:53:00,43.0,-99.9,-100.00,NNW,340,11.0,-999.0,-999,-99.99,,,-99.99,,2013-02-09 03:53:00,
2013-02-08 20:24:00,43.0,-99.9,-100.00,NW,311,11.0,-999.0,-999,-99.99,,,-99.99,,2013-02-09 04:24:00,
2013-02-08 20:32:00,43.0,-99.9,-100.00,NW,311,11.0,-999.0,-999,-99.99,,,-99.99,,2013-02-09 04:32:00,
2013-02-08 20:43:00,43.0,-99.9,-100.00,NW,311,11.0,-999.0,-999,-99.99,,,-99.99,,2013-02-09 04:43:00,
2013-02-08 20:53:00,43.0,-99.9,-100.00,NW,311,11.0,-999.0,-999,-99.99,,,-99.99,,2013-02-09 04:53:00,
2013-02-08 21:22:00,42.0,-99.9,-100.00,NNW,337,18.0,-999.0,-999,-99.99,,,-99.99,,2013-02-09 05:22:00,
2013-02-08 21:32:00,42.0,-99.9,-100.00,NNW,337,18.0,-999.0,-999,-99.99,,,-99.99,,2013-02-09 05:32:00,
2013-02-08 21:42:00,42.0,-99.9,-100.00,NNW,337,18.0,-999.0,-999,-99.99,,,-99.99,,2013-02-09 05:42:00,
2013-02-08 21:52:00,42.0,-99.9,-100.00,NNW,337,18.0,-999.0,-999,-99.99,,,-99.99,,2013-02-09 05:52:00,
2013-02-08 22:22:00,43.0,-99.9,-100.00,NNW,335,22.0,-999.0,-999,-99.99,,,-99.99,,2013-02-09 06:22:00,
2013-02-08 22:32:00,43.0,-99.9,-100.00,NNW,335,22.0,-999.0,-999,-99.99,,,-99.99,,2013-02-09 06:32:00,
2013-02-08 22:42:00,43.0,-99.9,-100.00,NNW,335,22.0,-999.0,-999,-99.99,,,-99.99,,2013-02-09 06:42:00,
2013-02-08 22:52:00,43.0,-99.9,-100.00,NNW,335,22.0,-999.0,-999,-99.99,,,-99.99,,2013-02-09 06:52:00,
2013-02-08 23:22:00,43.0,-99.9,-100.00,NNW,331,13.0,-999.0,-999,-99.99,,,-99.99,,2013-02-09 07:22:00,
2013-02-08 23:32:00,43.0,-99.9,-100.00,NNW,331,13.0,-999.0,-999,-99.99,,,-99.99,,2013-02-09 07:32:00,
2013-02-08 23:42:00,43.0,-99.9,-100.00,NNW,331,13.0,-999.0,-999,-99.99,,,-99.99,,2013-02-09 07:42:00,
2013-02-08 23:52:00,43.0,-99.9,-100.00,NNW,331,13.0,-999.0,-999,-99.99,,,-99.99,,2013-02-09 07:52:00,